YAOGAN-39 05C

导读

YAOGAN-39 05C(遥感三十九号05C星)是中国研制的遥感卫星,于北京时间2023年12月10日9时58分,在西昌卫星发射中心由长征二号丁运载火箭发射升空,卫星随后顺利进入预定轨道,发射任务取得圆满成功。这发任务是长征系列运载火箭第500次飞行,该卫星主要将用于遥感观测相关领域的科研与应用任务。

基本信息
目录编号:
58559
目录名称:
YAOGAN-39 05C
国际标识:
2023-194C
轨道中心:
EARTH
卫星名称:
YAOGAN-39 05C
卫星全名:
YAOGAN-39 05C
卫星状态:
在轨 (已飞行1000 天)
发射日期:
2023-12-10 UTC
国别 :
中国 (CN)
星等 :
--
轨道信息
数据来源 国际轨道数据
星历时间: 2026-09-05T14:21:05+0800
13小时前
查看轨道信息
半长轴: 6894.447km
偏心率: 0.0015955
轨道倾角: 34.992°
近地点辐角 15.654°
升交点赤经 302.059°
平近点角 344.466°
近地点: 505.309km
远地点: 527.311km
周期: 94.953分钟
每日圈数: 15.165392
详细信息
使用方式:
暂无
2D轨道图
3D轨道图
轨道高度分析图
轨道倾角分析图
轨道综合分析图
查看轨道综合分析图
交会数据列表
事件ID 空间交会对象 最接近时刻(TCA) 交会距离 交会风险概率(CRP) 交会风险指数(CRI) 操作
CDM_260907-090405-855906-672623
2026-09-07T
09:04:08+0000
2.291 km
极远距离
1.497712E-6 低风险 0.39
CDM_260907-050800-514405-855923
2026-09-07T
05:08:29+0000
2.575 km
极远距离
1.399097E-6 低风险 0.38
CDM_260904-005305-268505-855921
2026-09-04T
00:53:52+0000
2.538 km
极远距离
1.270823E-6 低风险 0.37